| time (UTC) | temp F | wind direction | speed knots | gust knots | rain 1hr in | rain 24hr in | rain mn in | humidity % | barometer mb |
| 20260510231014 | 85 | 276 | 4.3 | 11.3 | 0.00 | 0.00 | 0.00 | 15 | 1004.6 |
| 20260510230514 | 85 | 355 | 7.0 | 12.2 | 0.00 | 0.00 | 0.00 | 15 | 1004.5 |
| 20260510230022 | 85 | 314 | 6.1 | 13.9 | 0.00 | 0.00 | 0.00 | 18 | 1004.4 |
| 20260510225513 | 85 | 27 | 10.4 | 13.9 | 0.00 | 0.00 | 0.00 | 18 | 1004.4 |
| 20260510225016 | 85 | 159 | 7.0 | 13.9 | 0.00 | 0.00 | 0.00 | 19 | 1004.0 |
| 20260510224532 | 85 | 198 | 7.0 | 13.9 | 0.00 | 0.00 | 0.00 | 19 | 1004.3 |
| 20260510224013 | 86 | 169 | 5.2 | 7.8 | 0.00 | 0.00 | 0.00 | 19 | 1004.2 |
| 20260510223512 | 86 | 164 | 5.2 | 8.7 | 0.00 | 0.00 | 0.00 | 18 | 1004.2 |
| 20260510223011 | 87 | 80 | 3.5 | 12.2 | 0.00 | 0.00 | 0.00 | 17 | 1004.0 |
| 20260510222511 | 87 | 324 | 6.1 | 12.2 | 0.00 | 0.00 | 0.00 | 13 | 1004.1 |
| 20260510222011 | 87 | 360 | 3.5 | 15.6 | 0.00 | 0.00 | 0.00 | 13 | 1004.0 |
| 20260510221510 | 87 | 333 | 8.7 | 15.6 | 0.00 | 0.00 | 0.00 | 13 | 1004.0 |
| 20260510221012 | 87 | 326 | 6.1 | 13.0 | 0.00 | 0.00 | 0.00 | 13 | 1004.0 |
| 20260510220513 | 88 | 335 | 7.8 | 13.0 | 0.00 | 0.00 | 0.00 | 13 | 1004.0 |
| 20260510220013 | 88 | 33 | 2.6 | 7.8 | 0.00 | 0.00 | 0.00 | 14 | 1004.0 |
| 20260510215510 | 88 | 164 | 4.3 | 13.0 | 0.00 | 0.00 | 0.00 | 14 | 1004.0 |
| 20260510215009 | 89 | 227 | 6.1 | 13.0 | 0.00 | 0.00 | 0.00 | 14 | 1004.0 |
| 20260510214509 | 89 | 260 | 4.3 | 10.4 | 0.00 | 0.00 | 0.00 | 14 | 1004.0 |
| 20260510214009 | 89 | 177 | 7.0 | 10.4 | 0.00 | 0.00 | 0.00 | 14 | 1004.0 |
| 20260510213509 | 88 | 27 | 1.7 | 7.8 | 0.00 | 0.00 | 0.00 | 14 | 1004.2 |
| 20260510213009 | 87 | 23 | 3.5 | 7.8 | 0.00 | 0.00 | 0.00 | 14 | 1004.3 |
| 20260510212512 | 87 | 60 | 3.5 | 10.4 | 0.00 | 0.00 | 0.00 | 14 | 1004.2 |
| 20260510212010 | 88 | 355 | 4.3 | 7.8 | 0.00 | 0.00 | 0.00 | 14 | 1004.4 |
| 20260510211508 | 89 | 132 | 2.6 | 4.3 | 0.00 | 0.00 | 0.00 | 13 | 1004.4 |
| 20260510211008 | 89 | 43 | 0.9 | 8.7 | 0.00 | 0.00 | 0.00 | 14 | 1004.5 |
| 20260510210511 | 89 | 27 | 3.5 | 9.6 | 0.00 | 0.00 | 0.00 | 14 | 1004.5 |
| 20260510210009 | 88 | 341 | 7.0 | 11.3 | 0.00 | 0.00 | 0.00 | 14 | 1004.5 |
| 20260510205510 | 87 | 315 | 7.8 | 11.3 | 0.00 | 0.00 | 0.00 | 14 | 1004.5 |
| 20260510205008 | 87 | 333 | 1.7 | 14.8 | 0.00 | 0.00 | 0.00 | 14 | 1004.6 |
| 20260510204509 | 87 | 346 | 8.7 | 14.8 | 0.00 | 0.00 | 0.00 | 14 | 1004.7 |
| 20260510204006 | 88 | 19 | 9.6 | 14.8 | 0.00 | 0.00 | 0.00 | 14 | 1004.6 |
| 20260510203507 | 88 | 14 | 7.0 | 14.8 | 0.00 | 0.00 | 0.00 | 14 | 1004.6 |
| 20260510203005 | 88 | 321 | 8.7 | 13.9 | 0.00 | 0.00 | 0.00 | 14 | 1004.7 |
| 20260510202506 | 88 | 337 | 7.0 | 13.9 | 0.00 | 0.00 | 0.00 | 14 | 1004.7 |
| 20260510202005 | 88 | 306 | 8.7 | 13.9 | 0.00 | 0.00 | 0.00 | 14 | 1004.8 |
| 20260510201504 | 89 | 41 | 3.5 | 12.2 | 0.00 | 0.00 | 0.00 | 14 | 1004.7 |
| 20260510201004 | 90 | 15 | 7.0 | 10.4 | 0.00 | 0.00 | 0.00 | 14 | 1004.8 |
| 20260510200506 | 89 | 35 | 0.9 | 9.6 | 0.00 | 0.00 | 0.00 | 13 | 1004.8 |
| 20260510200006 | 89 | 116 | 2.6 | 7.0 | 0.00 | 0.00 | 0.00 | 13 | 1004.8 |
| 20260510195501 | 88 | 13 | 0.9 | 7.0 | 0.00 | 0.00 | 0.00 | 14 | 1004.9 |
| 20260510195100 | 88 | 301 | 2.6 | 7.8 | 0.00 | 0.00 | 0.00 | 14 | 1005.0 |
| 20260510194611 | 88 | 297 | 3.5 | 13.0 | 0.00 | 0.00 | 0.00 | 14 | 1005.0 |
| 20260510194100 | 88 | 300 | 4.3 | 13.0 | 0.00 | 0.00 | 0.00 | 14 | 1005.0 |
| 20260510193559 | 88 | 324 | 6.1 | 12.2 | 0.00 | 0.00 | 0.00 | 14 | 1005.0 |
| 20260510193106 | 88 | 29 | 7.0 | 12.2 | 0.00 | 0.00 | 0.00 | 14 | 1005.0 |
| 20260510192557 | 88 | 355 | 7.0 | 19.1 | 0.00 | 0.00 | 0.00 | 14 | 1005.0 |
| 20260510192057 | 88 | 344 | 9.6 | 19.1 | 0.00 | 0.00 | 0.00 | 14 | 1005.1 |
| 20260510191605 | 89 | 168 | 0.0 | 7.8 | 0.00 | 0.00 | 0.00 | 14 | 1005.2 |
| 20260510191055 | 88 | 193 | 3.5 | 7.8 | 0.00 | 0.00 | 0.00 | 14 | 1005.2 |
| 20260510190554 | 88 | 149 | 0.9 | 9.6 | 0.00 | 0.00 | 0.00 | 14 | 1005.2 |
| 20260510190059 | 87 | 250 | 4.3 | 9.6 | 0.00 | 0.00 | 0.00 | 15 | 1005.3 |
| 20260510185554 | 87 | 22 | 1.7 | 7.0 | 0.00 | 0.00 | 0.00 | 15 | 1005.4 |
| 20260510185053 | 87 | 21 | 2.6 | 7.8 | 0.00 | 0.00 | 0.00 | 15 | 1005.5 |
| 20260510184600 | 87 | 285 | 2.6 | 7.8 | 0.00 | 0.00 | 0.00 | 15 | 1005.5 |
| 20260510184054 | 87 | 252 | 4.3 | 9.6 | 0.00 | 0.00 | 0.00 | 15 | 1005.5 |
| 20260510183552 | 87 | 298 | 3.5 | 9.6 | 0.00 | 0.00 | 0.00 | 15 | 1005.5 |
| 20260510183051 | 87 | 344 | 4.3 | 8.7 | 0.00 | 0.00 | 0.00 | 15 | 1005.6 |
| 20260510182552 | 87 | 279 | 2.6 | 8.7 | 0.00 | 0.00 | 0.00 | 15 | 1005.6 |
| 20260510182049 | 86 | 268 | 1.7 | 10.4 | 0.00 | 0.00 | 0.00 | 15 | 1005.6 |
| 20260510181553 | 86 | 279 | 4.3 | 13.0 | 0.00 | 0.00 | 0.00 | 15 | 1005.7 |
| 20260510181047 | 86 | 300 | 7.8 | 13.9 | 0.00 | 0.00 | 0.00 | 15 | 1005.7 |
| 20260510180546 | 86 | 308 | 8.7 | 13.9 | 0.00 | 0.00 | 0.00 | 16 | 1005.7 |
| 20260510180045 | 86 | 15 | 7.0 | 11.3 | 0.00 | 0.00 | 0.00 | 16 | 1005.8 |
| 20260510175543 | 86 | 302 | 3.5 | 9.6 | 0.00 | 0.00 | 0.00 | 15 | 1005.8 |
| 20260510175044 | 86 | 304 | 2.6 | 7.0 | 0.00 | 0.00 | 0.00 | 15 | 1005.9 |
| 20260510174544 | 85 | 51 | 0.9 | 8.7 | 0.00 | 0.00 | 0.00 | 16 | 1006.0 |
| 20260510174039 | 85 | 48 | 5.2 | 13.9 | 0.00 | 0.00 | 0.00 | 16 | 1006.0 |
| 20260510173538 | 85 | 80 | 6.1 | 13.9 | 0.00 | 0.00 | 0.00 | 16 | 1005.9 |
| 20260510173039 | 85 | 41 | 6.1 | 13.0 | 0.00 | 0.00 | 0.00 | 16 | 1005.9 |
| 20260510172536 | 85 | 14 | 7.0 | 12.2 | 0.00 | 0.00 | 0.00 | 17 | 1005.9 |
| 20260510172039 | 85 | 125 | 4.3 | 13.9 | 0.00 | 0.00 | 0.00 | 16 | 1005.9 |
| 20260510171535 | 85 | 337 | 7.0 | 13.9 | 0.00 | 0.00 | 0.00 | 16 | 1005.9 |
| 20260510171032 | 85 | 45 | 4.3 | 10.4 | 0.00 | 0.00 | 0.00 | 16 | 1005.9 |
| 20260510170533 | 85 | 118 | 2.6 | 13.0 | 0.00 | 0.00 | 0.00 | 16 | 1005.8 |
| 20260510170029 | 85 | 29 | 7.0 | 15.6 | 0.00 | 0.00 | 0.00 | 17 | 1005.9 |
| 20260510165528 | 85 | 42 | 9.6 | 15.6 | 0.00 | 0.00 | 0.00 | 17 | 1005.7 |
| 20260510165026 | 84 | 22 | 7.8 | 15.6 | 0.00 | 0.00 | 0.00 | 17 | 1005.7 |
| 20260510164524 | 84 | 4 | 6.1 | 18.2 | 0.00 | 0.00 | 0.00 | 17 | 1005.6 |
| 20260510164022 | 84 | 21 | 12.2 | 18.2 | 0.00 | 0.00 | 0.00 | 17 | 1005.6 |
| 20260510163521 | 83 | 50 | 9.6 | 15.6 | 0.00 | 0.00 | 0.00 | 18 | 1005.5 |
| 20260510163020 | 83 | 50 | 9.6 | 15.6 | 0.00 | 0.00 | 0.00 | 17 | 1005.5 |
| 20260510162519 | 83 | 58 | 9.6 | 16.5 | 0.00 | 0.00 | 0.00 | 18 | 1005.5 |
| 20260510162017 | 82 | 45 | 10.4 | 16.5 | 0.00 | 0.00 | 0.00 | 18 | 1005.5 |
| 20260510161519 | 83 | 51 | 12.2 | 17.4 | 0.00 | 0.00 | 0.00 | 18 | 1005.5 |
| 20260510161014 | 83 | 54 | 12.2 | 20.0 | 0.00 | 0.00 | 0.00 | 18 | 1005.4 |
| 20260510160514 | 82 | 23 | 13.9 | 20.9 | 0.00 | 0.00 | 0.00 | 18 | 1005.4 |
| 20260510160018 | 82 | 19 | 13.9 | 20.9 | 0.00 | 0.00 | 0.00 | 18 | 1005.4 |
| 20260510155513 | 82 | 344 | 10.4 | 20.0 | 0.00 | 0.00 | 0.00 | 18 | 1005.4 |
| 20260510155010 | 82 | 360 | 12.2 | 17.4 | 0.00 | 0.00 | 0.00 | 18 | 1005.4 |
| 20260510154507 | 82 | 350 | 11.3 | 18.2 | 0.00 | 0.00 | 0.00 | 19 | 1005.3 |
| 20260510154006 | 82 | 34 | 13.9 | 18.2 | 0.00 | 0.00 | 0.00 | 19 | 1005.3 |
| 20260510153505 | 82 | 33 | 12.2 | 16.5 | 0.00 | 0.00 | 0.00 | 19 | 1005.2 |
| 20260510153006 | 82 | 39 | 11.3 | 17.4 | 0.00 | 0.00 | 0.00 | 19 | 1005.1 |
| 20260510152502 | 81 | 10 | 11.3 | 17.4 | 0.00 | 0.00 | 0.00 | 19 | 1005.1 |
| 20260510152000 | 81 | 9 | 10.4 | 19.1 | 0.00 | 0.00 | 0.00 | 19 | 1005.1 |
| 20260510151605 | 81 | 18 | 13.0 | 20.9 | 0.00 | 0.00 | 0.00 | 19 | 1005.1 |
| 20260510151058 | 80 | 41 | 15.6 | 20.9 | 0.00 | 0.00 | 0.00 | 19 | 1005.1 |
| 20260510150557 | 80 | 48 | 11.3 | 18.2 | 0.00 | 0.00 | 0.00 | 19 | 1005.1 |
| 20260510150057 | 79 | 33 | 11.3 | 18.2 | 0.00 | 0.00 | 0.00 | 20 | 1005.1 |
| 20260510145553 | 78 | 17 | 13.0 | 17.4 | 0.00 | 0.00 | 0.00 | 20 | 1005.2 |
| 20260510145051 | 77 | 6 | 10.4 | 15.6 | 0.00 | 0.00 | 0.00 | 21 | 1005.1 |
| 20260510144551 | 76 | 39 | 8.7 | 14.8 | 0.00 | 0.00 | 0.00 | 21 | 1005.0 |
| 20260510144049 | 76 | 24 | 10.4 | 13.9 | 0.00 | 0.00 | 0.00 | 21 | 1005.0 |
| 20260510143548 | 75 | 11 | 8.7 | 12.2 | 0.00 | 0.00 | 0.00 | 21 | 1005.1 |
| 20260510143046 | 75 | 19 | 8.7 | 12.2 | 0.00 | 0.00 | 0.00 | 22 | 1005.0 |
| 20260510142545 | 74 | 33 | 7.8 | 14.8 | 0.00 | 0.00 | 0.00 | 22 | 1005.0 |
| 20260510142044 | 74 | 8 | 7.0 | 14.8 | 0.00 | 0.00 | 0.00 | 22 | 1005.0 |
| 20260510141544 | 73 | 23 | 8.7 | 14.8 | 0.00 | 0.00 | 0.00 | 22 | 1004.9 |
| 20260510141041 | 72 | 345 | 9.6 | 14.8 | 0.00 | 0.00 | 0.00 | 22 | 1004.9 |
| 20260510140539 | 72 | 31 | 10.4 | 14.8 | 0.00 | 0.00 | 0.00 | 22 | 1004.8 |
| 20260510140040 | 72 | 24 | 8.7 | 14.8 | 0.00 | 0.00 | 0.00 | 23 | 1004.7 |
| 20260510135537 | 71 | 30 | 10.4 | 15.6 | 0.00 | 0.00 | 0.00 | 23 | 1004.8 |
| 20260510135035 | 71 | 34 | 10.4 | 14.8 | 0.00 | 0.00 | 0.00 | 23 | 1004.6 |
| 20260510134537 | 71 | 40 | 10.4 | 14.8 | 0.00 | 0.00 | 0.00 | 23 | 1004.7 |
| 20260510134031 | 71 | 32 | 10.4 | 16.5 | 0.00 | 0.00 | 0.00 | 23 | 1004.8 |
| 20260510133532 | 71 | 17 | 11.3 | 17.4 | 0.00 | 0.00 | 0.00 | 23 | 1004.8 |
| 20260510133029 | 70 | 8 | 10.4 | 13.9 | 0.00 | 0.00 | 0.00 | 23 | 1004.7 |
| 20260510132527 | 70 | 360 | 8.7 | 13.9 | 0.00 | 0.00 | 0.00 | 23 | 1004.8 |
| 20260510132029 | 69 | 350 | 8.7 | 13.0 | 0.00 | 0.00 | 0.00 | 24 | 1004.8 |
| 20260510131525 | 68 | 13 | 7.0 | 11.3 | 0.00 | 0.00 | 0.00 | 25 | 1004.8 |
| 20260510131023 | 67 | 10 | 6.1 | 9.6 | 0.00 | 0.00 | 0.00 | 26 | 1004.7 |
| 20260510130522 | 67 | 16 | 7.0 | 10.4 | 0.00 | 0.00 | 0.00 | 26 | 1004.7 |
| 20260510130122 | 66 | 360 | 7.0 | 10.4 | 0.00 | 0.00 | 0.00 | 26 | 1004.7 |
| 20260510125519 | 66 | 360 | 7.0 | 12.2 | 0.00 | 0.00 | 0.00 | 26 | 1004.6 |
| 20260510125016 | 66 | 31 | 7.8 | 12.2 | 0.00 | 0.00 | 0.00 | 26 | 1004.5 |
| 20260510124515 | 66 | 39 | 8.7 | 12.2 | 0.00 | 0.00 | 0.00 | 26 | 1004.4 |
| 20260510124018 | 67 | 33 | 8.7 | 12.2 | 0.00 | 0.00 | 0.00 | 25 | 1004.4 |
| 20260510123513 | 67 | 13 | 7.0 | 10.4 | 0.00 | 0.00 | 0.00 | 25 | 1004.5 |
| 20260510123011 | 68 | 21 | 7.0 | 11.3 | 0.00 | 0.00 | 0.00 | 24 | 1004.4 |
| 20260510122509 | 68 | 21 | 7.8 | 13.9 | 0.00 | 0.00 | 0.00 | 24 | 1004.3 |
| 20260510122008 | 68 | 11 | 8.7 | 13.9 | 0.00 | 0.00 | 0.00 | 24 | 1004.2 |
| 20260510121507 | 67 | 22 | 7.0 | 9.6 | 0.00 | 0.00 | 0.00 | 24 | 1004.0 |
| 20260510121006 | 67 | 24 | 6.1 | 8.7 | 0.00 | 0.00 | 0.00 | 24 | 1004.0 |
| 20260510120508 | 68 | 30 | 4.3 | 9.6 | 0.00 | 0.00 | 0.00 | 24 | 1003.9 |
| 20260510120005 | 67 | 22 | 7.0 | 10.4 | 0.00 | 0.00 | 0.00 | 24 | 1003.8 |
| 20260510115504 | 67 | 39 | 6.1 | 10.4 | 0.00 | 0.00 | 0.00 | 24 | 1003.8 |
| 20260510115001 | 68 | 59 | 5.2 | 7.8 | 0.00 | 0.00 | 0.00 | 24 | 1003.7 |
| 20260510114603 | 68 | 59 | 4.3 | 7.8 | 0.00 | 0.00 | 0.00 | 24 | 1003.7 |
| 20260510114101 | 68 | 64 | 5.2 | 9.6 | 0.00 | 0.00 | 0.00 | 24 | 1003.7 |
| 20260510113559 | 69 | 50 | 6.1 | 9.6 | 0.00 | 0.00 | 0.00 | 23 | 1003.7 |
| 20260510113059 | 69 | 76 | 6.1 | 9.6 | 0.00 | 0.00 | 0.00 | 23 | 1003.6 |
| 20260510112559 | 70 | 77 | 6.1 | 9.6 | 0.00 | 0.00 | 0.00 | 23 | 1003.7 |
| 20260510112100 | 70 | 65 | 6.1 | 9.6 | 0.00 | 0.00 | 0.00 | 22 | 1003.6 |
| 20260510111558 | 70 | 48 | 5.2 | 7.8 | 0.00 | 0.00 | 0.00 | 22 | 1003.7 |
| 20260510111057 | 70 | 23 | 4.3 | 7.8 | 0.00 | 0.00 | 0.00 | 22 | 1003.6 |
| 20260510110557 | 71 | 29 | 4.3 | 9.6 | 0.00 | 0.00 | 0.00 | 22 | 1003.6 |
| 20260510110101 | 71 | 35 | 4.3 | 9.6 | 0.00 | 0.00 | 0.00 | 22 | 1003.5 |
| 20260510105557 | 70 | 26 | 2.6 | 9.6 | 0.00 | 0.00 | 0.00 | 22 | 1003.5 |
| 20260510105055 | 70 | 35 | 5.2 | 11.3 | 0.00 | 0.00 | 0.00 | 22 | 1003.3 |
| 20260510104555 | 70 | 32 | 6.1 | 11.3 | 0.00 | 0.00 | 0.00 | 22 | 1003.3 |
| 20260510104056 | 69 | 28 | 5.2 | 10.4 | 0.00 | 0.00 | 0.00 | 23 | 1003.3 |
| 20260510103555 | 68 | 43 | 6.1 | 10.4 | 0.00 | 0.00 | 0.00 | 23 | 1003.3 |
| 20260510103100 | 68 | 35 | 7.8 | 10.4 | 0.00 | 0.00 | 0.00 | 24 | 1003.3 |
| 20260510102555 | 68 | 46 | 7.0 | 10.4 | 0.00 | 0.00 | 0.00 | 24 | 1003.2 |
| 20260510102053 | 69 | 34 | 7.8 | 9.6 | 0.00 | 0.00 | 0.00 | 24 | 1003.3 |
| 20260510101600 | 70 | 29 | 7.0 | 9.6 | 0.00 | 0.00 | 0.00 | 23 | 1003.3 |
| 20260510101050 | 70 | 65 | 7.0 | 9.6 | 0.00 | 0.00 | 0.00 | 22 | 1003.3 |
| 20260510100549 | 69 | 52 | 4.3 | 7.8 | 0.00 | 0.00 | 0.00 | 23 | 1003.2 |
| 20260510100049 | 68 | 67 | 6.1 | 7.8 | 0.00 | 0.00 | 0.00 | 24 | 1003.2 |
| 20260510095547 | 68 | 76 | 6.1 | 7.8 | 0.00 | 0.00 | 0.00 | 24 | 1003.2 |
| 20260510095044 | 69 | 93 | 4.3 | 7.8 | 0.00 | 0.00 | 0.00 | 23 | 1003.2 |
| 20260510094547 | 69 | 68 | 3.5 | 7.8 | 0.00 | 0.00 | 0.00 | 23 | 1003.1 |
| 20260510094044 | 69 | 86 | 3.5 | 7.8 | 0.00 | 0.00 | 0.00 | 23 | 1003.1 |
| 20260510093543 | 68 | 93 | 4.3 | 7.8 | 0.00 | 0.00 | 0.00 | 23 | 1003.0 |
| 20260510093042 | 69 | 50 | 4.3 | 6.1 | 0.00 | 0.00 | 0.00 | 23 | 1002.9 |
| 20260510092540 | 69 | 69 | 4.3 | 6.1 | 0.00 | 0.00 | 0.00 | 22 | 1002.9 |
| 20260510092039 | 70 | 66 | 2.6 | 5.2 | 0.00 | 0.00 | 0.00 | 22 | 1002.9 |
| 20260510091539 | 70 | 61 | 2.6 | 4.3 | 0.00 | 0.00 | 0.00 | 22 | 1002.8 |
| 20260510091038 | 70 | 95 | 1.7 | 3.5 | 0.00 | 0.00 | 0.00 | 21 | 1002.7 |
| 20260510090538 | 71 | 145 | 0.9 | 4.3 | 0.00 | 0.00 | 0.00 | 20 | 1002.7 |
| 20260510090039 | 72 | 146 | 1.7 | 4.3 | 0.00 | 0.00 | 0.00 | 20 | 1002.8 |
| 20260510085537 | 72 | 146 | 1.7 | 6.1 | 0.00 | 0.00 | 0.00 | 19 | 1002.7 |
| 20260510085038 | 72 | 122 | 2.6 | 5.2 | 0.00 | 0.00 | 0.00 | 19 | 1002.7 |
| 20260510084535 | 72 | 189 | 3.5 | 4.3 | 0.00 | 0.00 | 0.00 | 19 | 1002.7 |
| 20260510084035 | 72 | 189 | 2.6 | 5.2 | 0.00 | 0.00 | 0.00 | 19 | 1002.6 |
| 20260510083534 | 72 | 188 | 3.5 | 5.2 | 0.00 | 0.00 | 0.00 | 19 | 1002.5 |
| 20260510083034 | 72 | 204 | 3.5 | 5.2 | 0.00 | 0.00 | 0.00 | 19 | 1002.4 |
| 20260510082534 | 72 | 145 | 1.7 | 6.1 | 0.00 | 0.00 | 0.00 | 19 | 1002.3 |
| 20260510082036 | 72 | 144 | 2.6 | 7.8 | 0.00 | 0.00 | 0.00 | 20 | 1002.3 |
| 20260510081539 | 71 | 128 | 4.3 | 7.8 | 0.00 | 0.00 | 0.00 | 19 | 1002.4 |
| 20260510081033 | 71 | 93 | 2.6 | 6.1 | 0.00 | 0.00 | 0.00 | 20 | 1002.5 |
| 20260510080532 | 72 | 115 | 3.5 | 6.1 | 0.00 | 0.00 | 0.00 | 19 | 1002.4 |
| 20260510080033 | 72 | 165 | 1.7 | 7.0 | 0.00 | 0.00 | 0.00 | 19 | 1002.3 |
| 20260510075531 | 72 | 161 | 4.3 | 7.0 | 0.00 | 0.00 | 0.00 | 19 | 1002.3 |
| 20260510075031 | 71 | 159 | 3.5 | 5.2 | 0.00 | 0.00 | 0.00 | 20 | 1002.3 |
| 20260510074532 | 71 | 158 | 2.6 | 5.2 | 0.00 | 0.00 | 0.00 | 20 | 1002.3 |
| 20260510074032 | 71 | 148 | 2.6 | 5.2 | 0.00 | 0.00 | 0.00 | 20 | 1002.3 |
| 20260510073533 | 71 | 123 | 1.7 | 6.1 | 0.00 | 0.00 | 0.00 | 20 | 1002.3 |
| 20260510073031 | 71 | 128 | 2.6 | 7.0 | 0.00 | 0.00 | 0.00 | 20 | 1002.4 |
| 20260510072531 | 71 | 129 | 2.6 | 7.8 | 0.00 | 0.00 | 0.00 | 20 | 1002.3 |
| 20260510072033 | 71 | 145 | 3.5 | 7.8 | 0.00 | 0.00 | 0.00 | 20 | 1002.4 |
| 20260510071531 | 70 | 162 | 5.2 | 7.8 | 0.00 | 0.00 | 0.00 | 20 | 1002.2 |
| 20260510071028 | 71 | 133 | 3.5 | 6.1 | 0.00 | 0.00 | 0.00 | 20 | 1002.2 |
| 20260510070526 | 73 | 102 | 1.7 | 3.5 | 0.00 | 0.00 | 0.00 | 20 | 1002.3 |
| 20260510070032 | 74 | 26 | 1.7 | 3.5 | 0.00 | 0.00 | 0.00 | 18 | 1002.2 |
| 20260510065525 | 75 | 293 | 0.9 | 4.3 | 0.00 | 0.00 | 0.00 | 17 | 1002.2 |
| 20260510065028 | 75 | 285 | 2.6 | 4.3 | 0.00 | 0.00 | 0.00 | 17 | 1002.1 |
| 20260510064524 | 75 | 285 | 1.7 | 4.3 | 0.00 | 0.00 | 0.00 | 17 | 1002.2 |
| 20260510064023 | 75 | 287 | 2.6 | 7.0 | 0.00 | 0.00 | 0.00 | 17 | 1002.2 |
| 20260510063523 | 75 | 302 | 3.5 | 7.0 | 0.00 | 0.00 | 0.00 | 17 | 1002.2 |
| 20260510063023 | 75 | 297 | 2.6 | 4.3 | 0.00 | 0.00 | 0.00 | 17 | 1002.2 |
| 20260510062523 | 75 | 292 | 1.7 | 2.6 | 0.00 | 0.00 | 0.00 | 17 | 1002.2 |
| 20260510062028 | 75 | 304 | 0.0 | 8.7 | 0.00 | 0.00 | 0.00 | 17 | 1002.2 |
| 20260510061527 | 75 | 305 | 2.6 | 8.7 | 0.00 | 0.00 | 0.00 | 17 | 1002.2 |
| 20260510061022 | 75 | 294 | 1.7 | 9.6 | 0.00 | 0.00 | 0.00 | 17 | 1002.1 |
| 20260510060525 | 75 | 292 | 5.2 | 9.6 | 0.00 | 0.00 | 0.00 | 17 | 1002.2 |
| 20260510060019 | 74 | 295 | 2.6 | 7.0 | 0.00 | 0.00 | 0.00 | 18 | 1002.2 |
| 20260510055518 | 73 | 301 | 1.7 | 4.3 | 0.00 | 0.00 | 0.00 | 18 | 1002.2 |
| 20260510055018 | 72 | 198 | 0.0 | 1.7 | 0.00 | 0.00 | 0.00 | 19 | 1002.2 |
| 20260510054518 | 72 | 198 | 0.0 | 1.7 | 0.00 | 0.00 | 0.00 | 19 | 1002.3 |
| 20260510054018 | 72 | 198 | 0.0 | 4.3 | 0.00 | 0.00 | 0.00 | 19 | 1002.3 |
| 20260510053517 | 71 | 143 | 1.7 | 4.3 | 0.00 | 0.00 | 0.00 | 20 | 1002.3 |
| 20260510053017 | 71 | 172 | 1.7 | 3.5 | 0.00 | 0.00 | 0.00 | 19 | 1002.2 |
| 20260510052517 | 72 | 172 | 0.9 | 3.5 | 0.00 | 0.00 | 0.00 | 19 | 1002.3 |
| 20260510052017 | 73 | 172 | 1.7 | 4.3 | 0.00 | 0.00 | 0.00 | 19 | 1002.3 |
| 20260510051528 | 75 | 172 | 2.6 | 4.3 | 0.00 | 0.00 | 0.00 | 17 | 1002.3 |
| 20260510051016 | 76 | 226 | 0.9 | 2.6 | 0.00 | 0.00 | 0.00 | 16 | 1002.4 |
| 20260510050516 | 77 | 279 | 0.9 | 1.7 | 0.00 | 0.00 | 0.00 | 16 | 1002.4 |
| 20260510050016 | 77 | 279 | 0.0 | 2.6 | 0.00 | 0.00 | 0.00 | 16 | 1002.4 |
| 20260510045519 | 78 | 279 | 0.9 | 6.1 | 0.00 | 0.00 | 0.00 | 15 | 1002.4 |
| 20260510045017 | 78 | 284 | 1.7 | 6.1 | 0.00 | 0.00 | 0.00 | 15 | 1002.4 |
| 20260510044514 | 78 | 266 | 2.6 | 5.2 | 0.00 | 0.00 | 0.00 | 15 | 1002.4 |
| 20260510044014 | 78 | 252 | 2.6 | 6.1 | 0.00 | 0.00 | 0.00 | 15 | 1002.3 |
| 20260510043514 | 79 | 264 | 2.6 | 6.1 | 0.00 | 0.00 | 0.00 | 15 | 1002.3 |
| 20260510043021 | 79 | 267 | 3.5 | 8.7 | 0.00 | 0.00 | 0.00 | 15 | 1002.3 |
| 20260510042514 | 79 | 260 | 5.2 | 8.7 | 0.00 | 0.00 | 0.00 | 15 | 1002.3 |
| 20260510042014 | 79 | 279 | 4.3 | 7.8 | 0.00 | 0.00 | 0.00 | 15 | 1002.2 |
| 20260510041514 | 79 | 259 | 1.7 | 6.1 | 0.00 | 0.00 | 0.00 | 15 | 1002.2 |
| 20260510041014 | 80 | 263 | 2.6 | 7.8 | 0.00 | 0.00 | 0.00 | 15 | 1002.2 |
| 20260510040514 | 80 | 249 | 4.3 | 10.4 | 0.00 | 0.00 | 0.00 | 14 | 1002.1 |
| 20260510040014 | 80 | 249 | 5.2 | 10.4 | 0.00 | 0.00 | 0.00 | 14 | 1002.0 |
| 20260510035513 | 80 | 236 | 6.1 | 11.3 | 0.00 | 0.00 | 0.00 | 14 | 1002.0 |
| 20260510035013 | 80 | 264 | 4.3 | 11.3 | 0.00 | 0.00 | 0.00 | 14 | 1001.9 |
| 20260510034513 | 81 | 258 | 5.2 | 11.3 | 0.00 | 0.00 | 0.00 | 14 | 1001.9 |
| 20260510034017 | 81 | 249 | 5.2 | 10.4 | 0.00 | 0.00 | 0.00 | 14 | 1001.8 |
| 20260510033512 | 81 | 241 | 5.2 | 10.4 | 0.00 | 0.00 | 0.00 | 14 | 1001.8 |
| 20260510033012 | 82 | 250 | 6.1 | 11.3 | 0.00 | 0.00 | 0.00 | 14 | 1001.7 |
| 20260510032512 | 82 | 241 | 5.2 | 11.3 | 0.00 | 0.00 | 0.00 | 14 | 1001.7 |
| 20260510032012 | 82 | 248 | 5.2 | 13.0 | 0.00 | 0.00 | 0.00 | 13 | 1001.7 |
| 20260510031511 | 82 | 234 | 7.8 | 13.0 | 0.00 | 0.00 | 0.00 | 13 | 1001.6 |
| 20260510031011 | 82 | 252 | 7.0 | 11.3 | 0.00 | 0.00 | 0.00 | 13 | 1001.5 |
| 20260510030511 | 83 | 247 | 7.0 | 12.2 | 0.00 | 0.00 | 0.00 | 13 | 1001.5 |
| 20260510030014 | 83 | 268 | 6.1 | 13.0 | 0.00 | 0.00 | 0.00 | 13 | 1001.4 |
| 20260510025510 | 83 | 234 | 7.0 | 12.2 | 0.00 | 0.00 | 0.00 | 13 | 1001.3 |
| 20260510025011 | 83 | 258 | 7.0 | 9.6 | 0.00 | 0.00 | 0.00 | 13 | 1001.3 |
| 20260510024510 | 83 | 242 | 6.1 | 11.3 | 0.00 | 0.00 | 0.00 | 13 | 1001.2 |
| 20260510024010 | 84 | 247 | 7.0 | 11.3 | 0.00 | 0.00 | 0.00 | 13 | 1001.1 |
| 20260510023510 | 84 | 243 | 7.0 | 13.0 | 0.00 | 0.00 | 0.00 | 13 | 1001.0 |
| 20260510023010 | 84 | 250 | 7.0 | 15.6 | 0.00 | 0.00 | 0.00 | 13 | 1000.9 |
| 20260510022513 | 85 | 252 | 9.6 | 15.6 | 0.00 | 0.00 | 0.00 | 13 | 1000.8 |
| 20260510022010 | 85 | 257 | 9.6 | 13.9 | 0.00 | 0.00 | 0.00 | 13 | 1000.8 |
| 20260510021514 | 85 | 247 | 9.6 | 13.9 | 0.00 | 0.00 | 0.00 | 13 | 1000.7 |
| 20260510021010 | 85 | 252 | 8.7 | 14.8 | 0.00 | 0.00 | 0.00 | 13 | 1000.6 |
| 20260510020509 | 85 | 243 | 7.8 | 14.8 | 0.00 | 0.00 | 0.00 | 13 | 1000.5 |
| 20260510020009 | 85 | 262 | 7.8 | 12.2 | 0.00 | 0.00 | 0.00 | 13 | 1000.4 |
| 20260510015508 | 86 | 253 | 5.2 | 10.4 | 0.00 | 0.00 | 0.00 | 13 | 1000.4 |
| 20260510015007 | 86 | 271 | 5.2 | 10.4 | 0.00 | 0.00 | 0.00 | 13 | 1000.4 |
| 20260510014508 | 87 | 257 | 5.2 | 12.2 | 0.00 | 0.00 | 0.00 | 12 | 1000.3 |
| 20260510014007 | 87 | 254 | 6.1 | 12.2 | 0.00 | 0.00 | 0.00 | 12 | 1000.2 |
| 20260510013507 | 87 | 275 | 7.0 | 12.2 | 0.00 | 0.00 | 0.00 | 12 | 1000.2 |
| 20260510013007 | 87 | 233 | 5.2 | 13.9 | 0.00 | 0.00 | 0.00 | 12 | 1000.1 |
| 20260510012511 | 88 | 241 | 7.0 | 13.9 | 0.00 | 0.00 | 0.00 | 12 | 1000.1 |
| 20260510012006 | 88 | 255 | 8.7 | 13.9 | 0.00 | 0.00 | 0.00 | 12 | 1000.0 |
| 20260510011506 | 88 | 261 | 7.8 | 15.6 | 0.00 | 0.00 | 0.00 | 12 | 1000.0 |
| 20260510011006 | 89 | 253 | 8.7 | 15.6 | 0.00 | 0.00 | 0.00 | 12 | 1000.0 |
| 20260510010505 | 89 | 274 | 7.0 | 11.3 | 0.00 | 0.00 | 0.00 | 12 | 1000.0 |
| 20260510010005 | 89 | 243 | 4.3 | 9.6 | 0.00 | 0.00 | 0.00 | 12 | 1000.0 |
| 20260510005504 | 89 | 237 | 5.2 | 9.6 | 0.00 | 0.00 | 0.00 | 12 | 1000.0 |
| 20260510005003 | 89 | 232 | 2.6 | 8.7 | 0.00 | 0.00 | 0.00 | 12 | 1000.0 |
| 20260510004503 | 89 | 189 | 4.3 | 12.2 | 0.00 | 0.00 | 0.00 | 12 | 1000.0 |
| 20260510004007 | 89 | 177 | 4.3 | 12.2 | 0.00 | 0.00 | 0.00 | 12 | 1000.0 |
| 20260510003503 | 89 | 243 | 5.2 | 10.4 | 0.00 | 0.00 | 0.00 | 12 | 1000.1 |
| 20260510003003 | 89 | 205 | 7.8 | 12.2 | 0.00 | 0.00 | 0.00 | 12 | 1000.1 |
| 20260510002505 | 90 | 223 | 4.3 | 12.2 | 0.00 | 0.00 | 0.00 | 12 | 1000.0 |
| 20260510002002 | 90 | 210 | 6.1 | 10.4 | 0.00 | 0.00 | 0.00 | 12 | 1000.1 |
| 20260510001505 | 90 | 221 | 6.1 | 15.6 | 0.00 | 0.00 | 0.00 | 12 | 1000.1 |
| 20260510001002 | 90 | 209 | 8.7 | 15.6 | 0.00 | 0.00 | 0.00 | 12 | 1000.1 |
| 20260510000501 | 90 | 244 | 6.1 | 12.2 | 0.00 | 0.00 | 0.00 | 12 | 1000.1 |
| 20260510000004 | 90 | 215 | 5.2 | 13.0 | 0.00 | 0.00 | 0.00 | 12 | 1000.2 |
| 20260509235602 | 90 | 233 | 7.0 | 13.0 | 0.00 | 0.00 | 0.00 | 12 | 1000.3 |
| 20260509235101 | 90 | 245 | 5.2 | 13.0 | 0.00 | 0.00 | 0.00 | 12 | 1000.3 |
| 20260509234559 | 90 | 181 | 7.0 | 13.0 | 0.00 | 0.00 | 0.00 | 11 | 1000.4 |
| 20260509234059 | 90 | 196 | 6.1 | 11.3 | 0.00 | 0.00 | 0.00 | 11 | 1000.4 |
| 20260509233559 | 90 | 204 | 4.3 | 13.0 | 0.00 | 0.00 | 0.00 | 12 | 1000.4 |
| 20260509233057 | 90 | 246 | 4.3 | 13.0 | 0.00 | 0.00 | 0.00 | 11 | 1000.5 |
| 20260509232600 | 90 | 285 | 3.5 | 13.9 | 0.00 | 0.00 | 0.00 | 12 | 1000.6 |
| 20260509232057 | 90 | 259 | 8.7 | 13.9 | 0.00 | 0.00 | 0.00 | 12 | 1000.6 |
| 20260509231607 | 90 | 169 | 3.5 | 12.2 | 0.00 | 0.00 | 0.00 | 11 | 1000.6 |